User: anonymous   Login
Location: Haliburton Scout Reserve
(45.0900°N, 78.3200°W)
Time: 01:06:22
(UTC-05:00)
Language:

S-56A Canister/Altair - Orbit

View from above orbital plane
View from above orbital plane
View from above satellite
View from above satellite

Ground track
Ground track

The orbit data is extracted from the following two-line orbital elements,

1 00082U 61004B   23036.84323369  .00000170  00000-0  19517-3 0  9997
2 00082  38.8500 231.4139 1167208  52.7788 317.3789 12.26090970926057
Epoch (UTC): 05 February 2023 20:14:15
Eccentricity: 0.1167208
inclination: 38.8500°
perigee height: 639 km
apogee height: 2493 km
right ascension of ascending node: 231.4139°
argument of perigee: 52.7788°
revolutions per day: 12.26090970
mean anomaly at epoch: 317.3789°
orbit number at epoch: 92605

The dashed part of the orbit path shows where the satellite is in the earth's shadow,  

DLR